Back to catalog

COSMOS 1635

AliveMilitaryLEO
NORAD 15617·PAYLOAD·🇷🇺 Russia

Launched Mar 21, 1985 from Plesetsk Cosmodrome

Loading…

Next Passes (next 24 hours)

TLE

FreshSource: Space-Track

Epoch: Sep 14, 2026, 14:52 UTC

1 15617U 85023A   26257.61986125  .00000009  00000-0  17551-3 0  9999
2 15617  74.0552 140.0214 0024308  24.3118 349.3520 12.43258902882834

Track COSMOS 1635 in real time with AllMySat

Download on the App Store